[[{"header":{"parameterUnit":"m.s-1","parameterCategory":1,"la1":30.2991,"la2":30.254,"lo1":-89.0895,"lo2":-89.0444,"dy":0.0017,"dx":0.0017,"nx":28,"ny":28,"refTime":"2023-07-20T21:00:00:Z","depth":0,"parameterNumber":2,"parameterNumberName":"U-component_of_WINDS"},"data":[0,0,0,0,0,0,0,0,0,0,0,0,0,0,0,0,0,0,0,0,0,0,0,0,0,0,0,0,0,0,0,0,0,0,0,0,0,0,0,0,0,0,0,0,0,0,0,0,0,0,0,0,0,0,0,0,0,0,3.0367,3.0367,0,3.0405,3.0405,3.0406,3.0327,3.0324,3.0322,3.0319,3.0363,3.0366,3.037,0,0,0,0,0,0,0,0,0,0,0,0,0,3.0227,3.023,3.0367,3.0367,3.0368,3.0405,3.0405,3.0406,3.0327,3.0324,3.0321,3.0318,3.0361,3.0366,3.037,0,0,0,0,0,0,0,0,0,0,0,0,0,3.0279,3.0231,3.0367,3.0333,3.033,3.0405,3.0405,3.0406,3.0328,3.0324,3.032,3.0317,3.036,3.0365,3.037,3.0481,0,0,3.0387,3.0389,0,0,0,0,0,0,0,0,3.0276,3.0284,3.0337,3.0335,3.0332,3.0357,3.0372,3.0431,3.0329,3.0329,3.0319,3.0315,3.0364,3.0369,3.0385,3.0483,3.0485,3.0387,3.039,3.0393,3.0394,0,0,0,0,0,0,0,3.0273,3.0282,3.0382,3.0338,3.0335,3.0316,3.0319,3.0383,3.0368,3.0329,3.0323,3.0328,3.0362,3.038,3.0385,3.0485,3.0387,3.0392,3.0395,3.0397,3.0671,3.0675,0,0,0,0,0,0,3.0273,3.028,3.0381,3.0383,3.0294,3.0322,3.0325,3.0353,3.0367,3.0365,3.0332,3.0325,3.0373,3.0379,3.0386,3.0513,3.0393,3.0398,3.0401,3.0667,3.0672,3.0676,0,0,0,0,0,0,3.027,3.0283,3.0379,3.033,3.034,3.0328,3.036,3.0356,3.0373,3.0369,3.0366,3.0352,3.037,3.0379,3.0456,3.0513,3.04,3.0405,3.0662,3.0668,3.0674,3.0769,0,0,0,0,0,0,3.0267,3.0282,3.0324,3.0331,3.0343,3.0449,3.0364,3.0359,3.0382,3.0373,3.0388,3.0386,3.0367,3.0449,3.0462,3.0519,3.0409,3.0657,3.0665,3.0672,3.0761,3.0778,3.0793,0,0,0,0,0,3.0262,3.0351,3.0327,3.0339,3.0395,3.0452,3.0459,3.0434,3.0387,3.0429,3.0425,3.0386,3.0505,3.0458,3.0471,3.0531,3.0653,3.0663,3.0671,3.0754,3.0775,3.0792,0,0,0,0,0,0,3.0354,3.0352,3.0324,3.0419,3.0436,3.0439,3.0491,3.0458,3.049,3.048,3.0449,3.0453,3.0536,3.0541,3.0488,3.0636,3.0571,3.0584,3.0629,3.0649,3.0664,3.0661,3.0414,0,0,0,0,0,3.0385,3.043,3.0426,3.051,3.052,3.0504,3.0528,3.0506,3.0524,3.0531,3.0534,3.0553,3.0593,3.0622,3.066,3.0761,3.0762,3.0809,3.0825,3.0838,3.0848,3.0899,3.0919,3.0706,3.0706,3.0706,0,0,3.045,3.0454,3.0486,3.0529,3.0539,3.0587,3.0511,3.0565,3.06,3.054,3.0612,3.0614,3.0633,3.0722,3.0762,3.0729,3.0907,3.0849,3.086,3.0863,3.091,3.093,3.0948,3.0712,3.0711,3.071,0,0,3.0592,3.0601,3.067,3.0681,3.0697,3.0685,3.0701,3.0709,3.0707,3.0778,3.0733,3.0774,3.0847,3.0861,3.0878,3.102,3.0984,3.1034,3.1116,3.1165,3.1182,3.1197,3.1245,3.1263,3.1045,3.1045,3.1045,0,3.0672,3.0741,3.071,3.0766,3.0785,3.073,3.0798,3.0811,3.084,3.0854,3.0817,3.0904,3.0913,3.1003,3.1037,3.1054,3.107,3.1032,3.1182,3.1196,3.121,3.1255,3.1274,3.1051,3.105,3.105,3.1049,0,3.0836,3.0884,3.0938,3.0963,3.0988,3.1051,3.1029,3.1058,3.1034,3.1026,3.1097,3.1106,3.1143,3.1163,3.1141,3.1248,3.1227,3.1187,3.1121,3.1236,3.1278,3.1296,3.1059,3.1057,3.1055,3.1054,0,0,3.104,3.1043,3.1064,3.1072,3.1084,3.1121,3.118,3.1213,3.1238,3.1259,3.1306,3.1367,3.1328,3.1347,3.1326,3.137,3.1479,3.1323,3.1323,3.135,3.1594,3.1623,3.1644,3.1455,3.1458,3.1461,3.1592,0,3.1178,3.1277,3.1249,3.1348,3.139,3.1337,3.1387,3.14,3.1393,3.1429,3.1422,3.1464,3.1411,3.1421,3.1462,3.1457,3.1527,3.1447,3.1498,3.15,3.1493,3.1667,3.1699,3.1822,3.1608,3.1611,3.1613,0,3.1354,3.1377,3.148,3.148,3.1497,3.1543,3.1569,3.1604,3.1616,3.1608,3.1627,3.1596,3.1653,3.1587,3.1664,3.161,3.1629,3.1629,3.1633,3.1636,3.1563,3.1672,3.1861,3.1879,3.1639,3.1637,3.1635,0,3.1488,3.1546,3.1614,3.1624,3.1627,3.166,3.1663,3.1671,3.1691,3.1715,3.1728,3.1759,3.1776,3.18,3.1778,3.1732,3.1857,3.179,3.1851,3.1852,3.188,3.1878,3.2072,3.1895,3.1895,3.1895,3.1894,0,3.1645,3.1709,3.1673,3.1715,3.1785,3.1751,3.1821,3.1819,3.1825,3.1865,3.1822,3.186,3.1829,3.1865,3.1848,3.1913,3.1922,3.1916,3.191,3.1919,3.1919,3.193,3.192,3.1899,3.1898,3.1897,3.1897,0,3.1807,3.1786,3.1856,3.1851,3.1851,3.1903,3.1899,3.1937,3.1925,3.1976,3.1986,3.1969,3.2008,3.1988,3.203,3.2018,3.2101,3.2085,3.2096,3.2091,3.2152,3.2146,3.2359,3.2384,3.2193,3.2195,3.2196,0,3.1908,3.1955,3.1955,3.1976,3.1981,3.2019,3.2038,3.2007,3.2029,3.2044,3.208,3.2114,3.214,3.2205,3.2197,3.2228,3.2211,3.2283,3.2216,3.2221,3.2209,3.2206,3.2209,3.2297,3.2299,3.2301,3.2303,0,3.2088,3.2074,3.2103,3.2127,3.2151,3.2169,3.2184,3.2205,3.2174,3.2201,3.2239,3.2259,3.2298,3.2333,3.2359,3.2362,3.2327,3.2324,3.2339,3.2347,3.2351,3.2347,3.2131,3.2319,3.2317,3.2316,3.2315,3.2315,3.2221,3.2259,3.2263,3.2295,3.2302,3.2316,3.235,3.2341,3.2372,3.24,3.238,3.2424,3.2432,3.2462,3.247,3.2504,3.2475,3.2498,3.2504,3.2509,3.2516,3.2346,3.2509,3.2508,3.2508,3.2508,3.2507,0,3.2396,3.2395,3.2425,3.2445,3.247,3.2432,3.2446,3.247,3.2508,3.2518,3.2543,3.2585,3.2617,3.261,3.2638,3.2667,3.2651,3.2675,3.2672,3.2673,3.2542,3.2524,3.2687,3.2687,3.2687,3.2687,3.2687,3.2687,3.249,3.2551,3.2537,3.26,3.2599,3.2639,3.265,3.2662,3.2669,3.2716,3.2742,3.2736,3.2738,3.2766,3.2794,3.279,3.2802,3.2832,3.2823,3.2701,3.2683,3.2666,3.2649,3.2836,3.2836,3.2951,3.2952,3.2953]},{"header":{"parameterUnit":"m.s-1","parameterCategory":1,"la1":30.2991,"la2":30.254,"lo1":-89.0895,"lo2":-89.0444,"dy":0.0017,"dx":0.0017,"nx":28,"ny":28,"refTime":"2023-07-20T21:00:00:Z","depth":0,"parameterNumber":3,"parameterNumberName":"V-component_of_WINDS"},"data":[0,0,0,0,0,0,0,0,0,0,0,0,0,0,0,0,0,0,0,0,0,0,0,0,0,0,0,0,0,0,0,0,0,0,0,0,0,0,0,0,0,0,0,0,0,0,0,0,0,0,0,0,0,0,0,0,0,0,5.2678,5.2679,0,5.2776,5.2777,5.2778,5.2748,5.2746,5.2744,5.2742,5.2836,5.284,5.2844,0,0,0,0,0,0,0,0,0,0,0,0,0,5.2458,5.2462,5.2677,5.2679,5.268,5.2775,5.2777,5.2778,5.2748,5.2746,5.2743,5.2741,5.2834,5.2839,5.2845,0,0,0,0,0,0,0,0,0,0,0,0,0,5.2554,5.2463,5.2677,5.2677,5.2678,5.2775,5.2777,5.2778,5.2749,5.2746,5.2743,5.274,5.2832,5.2839,5.2845,5.2947,0,0,5.2865,5.2868,0,0,0,0,0,0,0,0,5.2548,5.2562,5.2676,5.2677,5.2678,5.2747,5.2733,5.2835,5.275,5.2722,5.2742,5.2738,5.2808,5.2816,5.2841,5.2951,5.2955,5.2866,5.287,5.2873,5.2875,0,0,0,0,0,0,0,5.2542,5.2558,5.2716,5.2677,5.2679,5.2669,5.268,5.2753,5.278,5.2724,5.2722,5.2734,5.2808,5.2835,5.2843,5.2957,5.2866,5.2872,5.2876,5.2878,5.3153,5.3157,0,0,0,0,0,0,5.2535,5.2552,5.2713,5.2719,5.2605,5.2676,5.2687,5.2728,5.278,5.2785,5.2737,5.2733,5.2825,5.2836,5.2846,5.2968,5.2873,5.2879,5.2883,5.315,5.3154,5.3158,0,0,0,0,0,0,5.2531,5.255,5.2709,5.2635,5.2655,5.2683,5.2728,5.2731,5.2758,5.279,5.2794,5.276,5.2823,5.2837,5.2922,5.297,5.2882,5.2888,5.3146,5.3151,5.3156,5.3212,0,0,0,0,0,0,5.2525,5.2548,5.2589,5.2636,5.2659,5.2786,5.2731,5.2735,5.277,5.2766,5.2812,5.2817,5.2822,5.2913,5.2929,5.2978,5.2893,5.3142,5.3148,5.3154,5.3206,5.3218,5.3229,0,0,0,0,0,5.2517,5.26,5.2591,5.2611,5.2711,5.2788,5.2801,5.2807,5.2774,5.2814,5.2834,5.2815,5.2963,5.2922,5.294,5.2991,5.3139,5.3147,5.3154,5.32,5.3216,5.3228,0,0,0,0,0,0,5.2555,5.2606,5.2597,5.2698,5.274,5.2783,5.2834,5.2823,5.2873,5.2866,5.2869,5.288,5.2967,5.2988,5.2941,5.3092,5.3046,5.3057,5.3075,5.309,5.3101,5.3093,5.2898,0,0,0,0,0,5.2575,5.2637,5.2677,5.2762,5.2784,5.2805,5.2839,5.2841,5.2883,5.2899,5.2926,5.2965,5.302,5.3056,5.3109,5.3209,5.3217,5.3253,5.3265,5.3274,5.3283,5.3336,5.3352,5.3183,5.3183,5.3182,0,0,5.2617,5.2653,5.2691,5.2771,5.2803,5.2864,5.282,5.2886,5.2931,5.2909,5.2991,5.3012,5.3056,5.3149,5.3191,5.3168,5.3332,5.3284,5.3291,5.3295,5.3345,5.3361,5.3376,5.3188,5.3187,5.3186,0,0,5.2725,5.2759,5.2833,5.2867,5.2917,5.2931,5.2949,5.2995,5.3008,5.3092,5.3076,5.3128,5.3223,5.3255,5.3283,5.3404,5.3387,5.3421,5.348,5.3531,5.3544,5.3556,5.3597,5.3612,5.343,5.343,5.343,0,5.277,5.2864,5.2872,5.2941,5.2975,5.296,5.3034,5.3065,5.3129,5.3152,5.3127,5.3246,5.3275,5.3374,5.3404,5.3428,5.3446,5.3414,5.3542,5.3554,5.3565,5.3604,5.362,5.3434,5.3433,5.3433,5.3433,0,5.2916,5.2981,5.3035,5.3099,5.314,5.321,5.3227,5.3267,5.3265,5.3281,5.3365,5.3399,5.3458,5.3482,5.348,5.3581,5.3565,5.3542,5.3495,5.3585,5.3622,5.3637,5.3439,5.3438,5.3437,5.3436,0,0,5.3049,5.3118,5.3137,5.3166,5.322,5.3269,5.3338,5.3398,5.3431,5.3476,5.3532,5.3614,5.3592,5.3625,5.3626,5.3672,5.3762,5.3642,5.3643,5.3661,5.3873,5.389,5.3907,5.3753,5.3756,5.3758,5.3869,0,5.316,5.3284,5.3293,5.3404,5.3463,5.345,5.351,5.3548,5.3565,5.3616,5.3633,5.369,5.3659,5.3678,5.3723,5.3742,5.3805,5.3734,5.3802,5.3805,5.379,5.3927,5.3944,5.4047,5.3884,5.3886,5.3888,0,5.3305,5.3356,5.3474,5.3519,5.3544,5.3598,5.3653,5.3703,5.3746,5.3755,5.3792,5.3787,5.3855,5.3808,5.3901,5.3853,5.3881,5.3895,5.3899,5.3904,5.385,5.3933,5.408,5.4095,5.3911,5.3909,5.3907,0,5.3388,5.3486,5.3569,5.3594,5.365,5.3687,5.3712,5.3752,5.3787,5.3835,5.3857,5.3911,5.394,5.3981,5.399,5.3956,5.4083,5.4037,5.409,5.409,5.4115,5.4113,5.4267,5.4137,5.4137,5.4137,5.4137,0,5.3509,5.3581,5.3606,5.3657,5.3736,5.3746,5.3823,5.3845,5.3881,5.3934,5.3926,5.3975,5.3985,5.4035,5.4043,5.4118,5.4131,5.4138,5.4139,5.4138,5.4137,5.4155,5.4147,5.4141,5.414,5.4139,5.4139,0,5.3614,5.3634,5.3723,5.377,5.3783,5.3839,5.3877,5.3925,5.3941,5.4008,5.4024,5.4049,5.4108,5.4122,5.4192,5.4197,5.4285,5.428,5.4271,5.427,5.4322,5.4316,5.4491,5.4514,5.4371,5.4372,5.4374,0,5.3689,5.3744,5.3797,5.3833,5.386,5.3918,5.3954,5.3966,5.4003,5.4057,5.4097,5.4156,5.4203,5.4298,5.4321,5.4374,5.4369,5.4426,5.4376,5.4373,5.4367,5.4363,5.4367,5.4435,5.4437,5.4438,5.4439,0,5.3819,5.3827,5.3881,5.3939,5.3983,5.4029,5.4072,5.4101,5.4118,5.416,5.4222,5.4259,5.4332,5.4389,5.4443,5.4465,5.4454,5.4455,5.447,5.4468,5.446,5.4463,5.4295,5.445,5.4449,5.4448,5.4448,5.4447,5.391,5.3958,5.4003,5.4063,5.4098,5.4138,5.4185,5.4208,5.4261,5.4322,5.4325,5.4392,5.4432,5.4504,5.453,5.458,5.4562,5.4584,5.4589,5.4594,5.4597,5.4454,5.459,5.459,5.4589,5.4589,5.4589,0,5.4038,5.4067,5.4123,5.4184,5.4231,5.422,5.4267,5.4306,5.4366,5.4406,5.4454,5.4524,5.458,5.4608,5.4663,5.4698,5.4694,5.4712,5.4708,5.4713,5.4611,5.4592,5.4714,5.4714,5.4714,5.4714,5.4714,5.4714,5.411,5.419,5.4204,5.43,5.4328,5.4395,5.4423,5.4459,5.4491,5.4571,5.4619,5.4637,5.4672,5.473,5.478,5.4786,5.4806,5.4826,5.4829,5.4733,5.472,5.4708,5.469,5.483,5.4831,5.4927,5.4927,5.4928]}]]